Voltar ao catálogo

STARLINK-30872

AtivoComunicaçõesVLEO
NORAD 58225·PAYLOAD·🇺🇸 United States

Lançado Nov 3, 2023 de Cape Canaveral Space Force Station

Loading…

Próximas Passagens (próximas 24 horas)

TLE

AtualizadoSource: CelesTrak SupGP

Época: Sep 15, 2026, 03:29 UTC

1 58225C 23170V   26258.14562500 -.00079605  00000+0 -28832-2 0  2582
2 58225  43.0005  62.3628 0001752 264.8682  74.8379 15.27618421    10

Acompanhe STARLINK-30872 em tempo real com AllMySat

Download on the App Store